| time (UTC) | temp F | wind direction | speed knots | gust knots | rain 1hr in | rain 24hr in | rain mn in | humidity % | barometer mb |
| 20260504081554 | 44 | 343 | 0.9 | 3.5 | 0.00 | 0.00 | 0.00 | 64 | 1011.4 |
| 20260504081047 | 44 | 314 | 0.9 | 2.6 | 0.00 | 0.00 | 0.00 | 63 | 1011.4 |
| 20260504080547 | 44 | 340 | 0.9 | 1.7 | 0.00 | 0.00 | 0.00 | 63 | 1011.3 |
| 20260504050548 | 37 | 0 | 0.0 | 0.9 | 0.00 | 0.00 | 0.00 | 79 | 1011.5 |
| 20260504045548 | 36 | 0 | 0.0 | 0.9 | 0.00 | 0.00 | 0.00 | 79 | 1011.5 |
| 20260504045048 | 36 | 0 | 0.0 | 0.9 | 0.00 | 0.00 | 0.00 | 80 | 1011.4 |
| 20260504044555 | 36 | 0 | 0.0 | 0.9 | 0.00 | 0.00 | 0.00 | 80 | 1011.3 |
| 20260504044049 | 36 | 343 | 0.0 | 0.0 | 0.00 | 0.00 | 0.00 | 80 | 1011.4 |
| 20260504043548 | 36 | 0 | 0.0 | 0.0 | 0.00 | 0.00 | 0.00 | 81 | 1011.2 |
| 20260504043059 | 36 | 0 | 0.0 | 0.0 | 0.00 | 0.00 | 0.00 | 82 | 1011.3 |
| 20260504042548 | 36 | 0 | 0.0 | 0.9 | 0.00 | 0.00 | 0.00 | 81 | 1011.4 |
| 20260504042049 | 36 | 0 | 0.0 | 0.9 | 0.00 | 0.00 | 0.00 | 81 | 1011.3 |
| 20260504041555 | 36 | 0 | 0.0 | 0.0 | 0.00 | 0.00 | 0.00 | 81 | 1011.1 |
| 20260504041048 | 36 | 0 | 0.0 | 0.0 | 0.00 | 0.00 | 0.00 | 80 | 1011.2 |
| 20260504040547 | 36 | 0 | 0.0 | 0.0 | 0.00 | 0.00 | 0.00 | 80 | 1011.2 |
| 20260504040128 | 36 | 0 | 0.0 | 0.0 | 0.00 | 0.00 | 0.00 | 80 | 1011.3 |
| 20260504035545 | 37 | 0 | 0.0 | 0.0 | 0.00 | 0.00 | 0.00 | 80 | 1011.2 |
| 20260504035048 | 37 | 0 | 0.0 | 0.0 | 0.00 | 0.00 | 0.00 | 80 | 1011.2 |
| 20260504034600 | 37 | 0 | 0.0 | 0.0 | 0.00 | 0.00 | 0.00 | 79 | 1011.2 |
| 20260504034048 | 37 | 0 | 0.0 | 0.0 | 0.00 | 0.00 | 0.00 | 79 | 1011.3 |
| 20260504033548 | 37 | 0 | 0.0 | 0.0 | 0.00 | 0.00 | 0.00 | 79 | 1011.2 |
| 20260504033050 | 37 | 0 | 0.0 | 0.0 | 0.00 | 0.00 | 0.00 | 79 | 1011.1 |
| 20260504032548 | 37 | 0 | 0.0 | 0.0 | 0.00 | 0.00 | 0.00 | 79 | 1011.2 |
| 20260504032048 | 38 | 0 | 0.0 | 0.0 | 0.00 | 0.00 | 0.00 | 79 | 1011.2 |
| 20260504031601 | 38 | 0 | 0.0 | 0.9 | 0.00 | 0.00 | 0.00 | 78 | 1011.2 |
| 20260504031051 | 38 | 0 | 0.0 | 0.9 | 0.00 | 0.00 | 0.00 | 79 | 1011.2 |
| 20260504030547 | 38 | 0 | 0.0 | 0.0 | 0.00 | 0.00 | 0.00 | 78 | 1011.0 |
| 20260504030053 | 37 | 0 | 0.0 | 0.0 | 0.00 | 0.00 | 0.00 | 78 | 1011.1 |
| 20260504025549 | 38 | 0 | 0.0 | 0.0 | 0.00 | 0.00 | 0.00 | 78 | 1011.2 |
| 20260504025047 | 37 | 0 | 0.0 | 0.0 | 0.00 | 0.00 | 0.00 | 78 | 1011.3 |
| 20260504024555 | 38 | 0 | 0.0 | 0.0 | 0.00 | 0.00 | 0.00 | 78 | 1011.3 |
| 20260504024049 | 37 | 0 | 0.0 | 0.0 | 0.00 | 0.00 | 0.00 | 78 | 1011.2 |
| 20260504023548 | 38 | 0 | 0.0 | 0.0 | 0.00 | 0.00 | 0.00 | 78 | 1011.3 |
| 20260504023049 | 38 | 0 | 0.0 | 0.0 | 0.00 | 0.00 | 0.00 | 78 | 1011.2 |
| 20260504022548 | 38 | 0 | 0.0 | 0.0 | 0.00 | 0.00 | 0.00 | 78 | 1011.2 |
| 20260504022048 | 38 | 0 | 0.0 | 0.0 | 0.00 | 0.00 | 0.00 | 78 | 1011.2 |
| 20260504021554 | 38 | 0 | 0.0 | 0.0 | 0.00 | 0.00 | 0.00 | 78 | 1011.2 |
| 20260504021045 | 38 | 0 | 0.0 | 0.0 | 0.00 | 0.00 | 0.00 | 78 | 1011.2 |
| 20260504020548 | 38 | 0 | 0.0 | 0.0 | 0.00 | 0.00 | 0.00 | 78 | 1011.1 |
| 20260504020107 | 38 | 0 | 0.0 | 0.0 | 0.00 | 0.00 | 0.00 | 77 | 1011.2 |
| 20260504015552 | 39 | 0 | 0.0 | 0.9 | 0.00 | 0.00 | 0.00 | 77 | 1011.1 |
| 20260504015049 | 39 | 0 | 0.0 | 0.9 | 0.00 | 0.00 | 0.00 | 77 | 1011.1 |
| 20260504014554 | 39 | 0 | 0.0 | 0.9 | 0.00 | 0.00 | 0.00 | 77 | 1011.1 |
| 20260504014048 | 39 | 0 | 0.0 | 0.9 | 0.00 | 0.00 | 0.00 | 77 | 1011.1 |
| 20260504013547 | 39 | 0 | 0.0 | 0.9 | 0.00 | 0.00 | 0.00 | 76 | 1011.0 |
| 20260504013051 | 39 | 0 | 0.0 | 0.0 | 0.00 | 0.00 | 0.00 | 76 | 1011.1 |
| 20260504012549 | 40 | 0 | 0.0 | 0.0 | 0.00 | 0.00 | 0.00 | 76 | 1011.0 |
| 20260504012046 | 40 | 0 | 0.0 | 0.0 | 0.00 | 0.00 | 0.00 | 75 | 1011.0 |
| 20260504011553 | 40 | 0 | 0.0 | 0.9 | 0.00 | 0.00 | 0.00 | 76 | 1010.9 |
| 20260504011048 | 41 | 0 | 0.0 | 0.9 | 0.00 | 0.00 | 0.00 | 75 | 1010.8 |
| 20260504010548 | 41 | 0 | 0.0 | 0.0 | 0.00 | 0.00 | 0.00 | 74 | 1010.8 |
| 20260504010056 | 41 | 0 | 0.0 | 0.0 | 0.00 | 0.00 | 0.00 | 73 | 1010.8 |
| 20260504005548 | 42 | 0 | 0.0 | 0.0 | 0.00 | 0.00 | 0.00 | 73 | 1010.7 |
| 20260504005052 | 42 | 0 | 0.0 | 0.9 | 0.00 | 0.00 | 0.00 | 71 | 1010.7 |
| 20260504004556 | 43 | 0 | 0.0 | 0.9 | 0.00 | 0.00 | 0.00 | 70 | 1010.8 |
| 20260504004045 | 43 | 0 | 0.0 | 0.9 | 0.00 | 0.00 | 0.00 | 70 | 1010.7 |
| 20260504003547 | 44 | 0 | 0.0 | 0.9 | 0.00 | 0.00 | 0.00 | 69 | 1010.7 |
| 20260504003053 | 44 | 0 | 0.0 | 0.0 | 0.00 | 0.00 | 0.00 | 68 | 1010.6 |
| 20260504002547 | 45 | 0 | 0.0 | 0.0 | 0.00 | 0.00 | 0.00 | 67 | 1010.6 |
| 20260504002047 | 46 | 0 | 0.0 | 0.0 | 0.00 | 0.00 | 0.00 | 66 | 1010.5 |
| 20260504001559 | 47 | 0 | 0.0 | 0.0 | 0.00 | 0.00 | 0.00 | 63 | 1010.4 |
| 20260504001051 | 48 | 0 | 0.0 | 0.0 | 0.00 | 0.00 | 0.00 | 62 | 1010.3 |
| 20260504000549 | 49 | 0 | 0.0 | 0.0 | 0.00 | 0.00 | 0.00 | 60 | 1010.3 |
| 20260504000059 | 50 | 0 | 0.0 | 0.0 | 0.00 | 0.00 | 0.00 | 60 | 1010.2 |
| 20260503235549 | 51 | 0 | 0.0 | 0.0 | 0.00 | 0.00 | 0.00 | 55 | 1010.1 |
| 20260503235051 | 51 | 0 | 0.0 | 0.0 | 0.00 | 0.00 | 0.00 | 51 | 1010.2 |
| 20260503234623 | 52 | 0 | 0.0 | 0.0 | 0.00 | 0.00 | 0.00 | 49 | 1010.2 |
| 20260503234053 | 53 | 0 | 0.0 | 0.9 | 0.00 | 0.00 | 0.00 | 48 | 1010.1 |
| 20260503233548 | 53 | 320 | 0.0 | 1.7 | 0.00 | 0.00 | 0.00 | 47 | 1010.0 |
| 20260503233053 | 53 | 0 | 0.0 | 1.7 | 0.00 | 0.00 | 0.00 | 46 | 1010.2 |
| 20260503232547 | 53 | 339 | 0.0 | 0.9 | 0.00 | 0.00 | 0.00 | 46 | 1010.1 |
| 20260503232047 | 54 | 0 | 0.0 | 2.6 | 0.00 | 0.00 | 0.00 | 47 | 1010.0 |
| 20260503231553 | 54 | 352 | 0.0 | 2.6 | 0.00 | 0.00 | 0.00 | 47 | 1010.0 |
| 20260503231048 | 54 | 331 | 0.0 | 2.6 | 0.00 | 0.00 | 0.00 | 44 | 1009.9 |
| 20260503230548 | 54 | 0 | 0.0 | 1.7 | 0.00 | 0.00 | 0.00 | 45 | 1010.0 |
| 20260503230052 | 54 | 20 | 0.9 | 2.6 | 0.00 | 0.00 | 0.00 | 45 | 1010.0 |
| 20260503225547 | 54 | 31 | 0.9 | 3.5 | 0.00 | 0.00 | 0.00 | 44 | 1009.9 |
| 20260503225048 | 55 | 18 | 1.7 | 3.5 | 0.00 | 0.00 | 0.00 | 45 | 1009.9 |
| 20260503224550 | 55 | 32 | 1.7 | 3.5 | 0.00 | 0.00 | 0.00 | 43 | 1009.9 |
| 20260503224048 | 55 | 115 | 1.7 | 3.5 | 0.00 | 0.00 | 0.00 | 44 | 1009.9 |
| 20260503223547 | 55 | 62 | 1.7 | 4.3 | 0.00 | 0.00 | 0.00 | 46 | 1009.8 |
| 20260503223050 | 55 | 97 | 1.7 | 4.3 | 0.00 | 0.00 | 0.00 | 45 | 1010.0 |
| 20260503222552 | 55 | 77 | 2.6 | 4.3 | 0.00 | 0.00 | 0.00 | 44 | 1010.0 |
| 20260503222048 | 55 | 89 | 2.6 | 4.3 | 0.00 | 0.00 | 0.00 | 45 | 1010.0 |
| 20260503221557 | 55 | 109 | 1.7 | 4.3 | 0.00 | 0.00 | 0.00 | 44 | 1009.9 |
| 20260503221048 | 55 | 31 | 2.6 | 4.3 | 0.00 | 0.00 | 0.00 | 43 | 1009.9 |
| 20260503220548 | 55 | 94 | 2.6 | 4.3 | 0.00 | 0.00 | 0.00 | 44 | 1010.0 |
| 20260503220059 | 55 | 42 | 0.9 | 5.2 | 0.00 | 0.00 | 0.00 | 44 | 1010.1 |
| 20260503215548 | 55 | 79 | 2.6 | 5.2 | 0.00 | 0.00 | 0.00 | 41 | 1009.9 |
| 20260503215049 | 56 | 93 | 2.6 | 5.2 | 0.00 | 0.00 | 0.00 | 41 | 1010.0 |
| 20260503214556 | 56 | 115 | 1.7 | 5.2 | 0.00 | 0.00 | 0.00 | 43 | 1009.9 |
| 20260503214053 | 56 | 60 | 2.6 | 6.1 | 0.00 | 0.00 | 0.00 | 42 | 1009.7 |
| 20260503213547 | 56 | 105 | 3.5 | 6.1 | 0.00 | 0.00 | 0.00 | 44 | 1009.7 |
| 20260503213053 | 56 | 75 | 3.5 | 6.1 | 0.00 | 0.00 | 0.00 | 42 | 1009.7 |
| 20260503212548 | 55 | 97 | 1.7 | 6.1 | 0.00 | 0.00 | 0.00 | 44 | 1009.6 |
| 20260503212048 | 55 | 252 | 1.7 | 6.1 | 0.00 | 0.00 | 0.00 | 43 | 1009.7 |
| 20260503211559 | 55 | 104 | 3.5 | 6.1 | 0.00 | 0.00 | 0.00 | 42 | 1009.8 |
| 20260503211049 | 54 | 106 | 2.6 | 6.1 | 0.00 | 0.00 | 0.00 | 44 | 1009.8 |
| 20260503210547 | 54 | 108 | 2.6 | 7.0 | 0.00 | 0.00 | 0.00 | 44 | 1009.8 |
| 20260503210054 | 54 | 82 | 1.7 | 7.0 | 0.00 | 0.00 | 0.00 | 44 | 1009.7 |
| 20260503205550 | 54 | 96 | 3.5 | 7.0 | 0.00 | 0.00 | 0.00 | 42 | 1009.8 |
| 20260503205050 | 55 | 80 | 1.7 | 5.2 | 0.00 | 0.00 | 0.00 | 43 | 1009.7 |
| 20260503204557 | 55 | 93 | 1.7 | 3.5 | 0.00 | 0.00 | 0.00 | 44 | 1009.7 |
| 20260503204047 | 55 | 80 | 1.7 | 3.5 | 0.00 | 0.00 | 0.00 | 42 | 1009.6 |
| 20260503203547 | 54 | 42 | 1.7 | 4.3 | 0.00 | 0.00 | 0.00 | 42 | 1009.6 |
| 20260503203057 | 54 | 35 | 1.7 | 4.3 | 0.00 | 0.00 | 0.00 | 43 | 1009.7 |
| 20260503202544 | 54 | 1 | 0.9 | 7.0 | 0.00 | 0.00 | 0.00 | 44 | 1009.6 |
| 20260503202049 | 54 | 89 | 1.7 | 7.0 | 0.00 | 0.00 | 0.00 | 42 | 1009.6 |
| 20260503201552 | 54 | 113 | 3.5 | 7.0 | 0.00 | 0.00 | 0.00 | 41 | 1009.6 |
| 20260503201047 | 54 | 21 | 1.7 | 7.0 | 0.00 | 0.00 | 0.00 | 44 | 1009.6 |
| 20260503200548 | 54 | 49 | 2.6 | 7.0 | 0.00 | 0.00 | 0.00 | 44 | 1009.6 |
| 20260503200057 | 54 | 84 | 2.6 | 6.1 | 0.00 | 0.00 | 0.00 | 41 | 1009.8 |
| 20260503195551 | 54 | 68 | 1.7 | 7.8 | 0.00 | 0.00 | 0.00 | 41 | 1009.9 |
| 20260503195049 | 54 | 91 | 3.5 | 7.8 | 0.00 | 0.00 | 0.00 | 40 | 1009.9 |
| 20260503194559 | 54 | 103 | 4.3 | 7.8 | 0.00 | 0.00 | 0.00 | 40 | 1009.9 |
| 20260503194047 | 54 | 91 | 3.5 | 7.0 | 0.00 | 0.00 | 0.00 | 38 | 1010.0 |
| 20260503193548 | 55 | 95 | 3.5 | 7.0 | 0.00 | 0.00 | 0.00 | 38 | 1010.0 |
| 20260503193121 | 56 | 84 | 2.6 | 7.0 | 0.00 | 0.00 | 0.00 | 39 | 1010.0 |
| 20260503192547 | 55 | 59 | 1.7 | 4.3 | 0.00 | 0.00 | 0.00 | 41 | 1009.9 |
| 20260503192047 | 54 | 27 | 0.9 | 4.3 | 0.00 | 0.00 | 0.00 | 42 | 1010.2 |
| 20260503191555 | 54 | 54 | 1.7 | 4.3 | 0.00 | 0.00 | 0.00 | 42 | 1010.5 |
| 20260503191047 | 54 | 117 | 0.9 | 6.1 | 0.00 | 0.00 | 0.00 | 40 | 1010.3 |
| 20260503190549 | 54 | 98 | 1.7 | 7.0 | 0.00 | 0.00 | 0.00 | 40 | 1010.2 |
| 20260503190056 | 55 | 55 | 4.3 | 7.0 | 0.00 | 0.00 | 0.00 | 37 | 1010.4 |
| 20260503185544 | 55 | 256 | 3.5 | 6.1 | 0.00 | 0.00 | 0.00 | 37 | 1010.4 |
| 20260503185051 | 56 | 105 | 3.5 | 5.2 | 0.00 | 0.00 | 0.00 | 37 | 1010.3 |
| 20260503184558 | 56 | 180 | 2.6 | 6.1 | 0.00 | 0.00 | 0.00 | 38 | 1010.5 |
| 20260503184048 | 56 | 31 | 3.5 | 7.8 | 0.00 | 0.00 | 0.00 | 39 | 1010.7 |
| 20260503183547 | 55 | 91 | 2.6 | 7.8 | 0.00 | 0.00 | 0.00 | 39 | 1010.8 |
| 20260503183056 | 56 | 70 | 2.6 | 7.0 | 0.00 | 0.00 | 0.00 | 41 | 1010.9 |
| 20260503182547 | 55 | 135 | 2.6 | 7.0 | 0.00 | 0.00 | 0.00 | 37 | 1010.8 |
| 20260503182047 | 54 | 103 | 1.7 | 7.0 | 0.00 | 0.00 | 0.00 | 41 | 1010.9 |
| 20260503181600 | 53 | 94 | 2.6 | 7.0 | 0.00 | 0.00 | 0.00 | 40 | 1010.9 |
| 20260503181044 | 53 | 111 | 2.6 | 7.0 | 0.00 | 0.00 | 0.00 | 43 | 1010.9 |
| 20260503180547 | 53 | 99 | 1.7 | 7.0 | 0.00 | 0.00 | 0.00 | 41 | 1011.0 |
| 20260503180105 | 52 | 84 | 1.7 | 7.0 | 0.00 | 0.00 | 0.00 | 47 | 1011.1 |
| 20260503175549 | 52 | 90 | 2.6 | 7.0 | 0.00 | 0.00 | 0.00 | 42 | 1011.0 |
| 20260503175048 | 52 | 134 | 3.5 | 7.0 | 0.00 | 0.00 | 0.00 | 49 | 1011.2 |
| 20260503174558 | 51 | 56 | 0.9 | 3.5 | 0.00 | 0.00 | 0.00 | 42 | 1011.2 |
| 20260503174048 | 51 | 72 | 1.7 | 5.2 | 0.00 | 0.00 | 0.00 | 46 | 1011.3 |
| 20260503173547 | 51 | 97 | 2.6 | 5.2 | 0.00 | 0.00 | 0.00 | 44 | 1011.4 |
| 20260503173050 | 51 | 111 | 1.7 | 10.4 | 0.00 | 0.00 | 0.00 | 45 | 1011.4 |
| 20260503172547 | 51 | 129 | 3.5 | 10.4 | 0.00 | 0.00 | 0.00 | 48 | 1011.6 |
| 20260503172048 | 50 | 124 | 1.7 | 4.3 | 0.00 | 0.00 | 0.00 | 47 | 1011.5 |
| 20260503171553 | 50 | 220 | 1.7 | 7.0 | 0.00 | 0.00 | 0.00 | 50 | 1011.7 |
| 20260503171047 | 49 | 94 | 2.6 | 7.0 | 0.00 | 0.00 | 0.00 | 45 | 1011.6 |
| 20260503170547 | 49 | 98 | 3.5 | 8.7 | 0.00 | 0.00 | 0.00 | 46 | 1011.8 |
| 20260503150548 | 45 | 215 | 2.6 | 7.0 | 0.00 | 0.00 | 0.00 | 51 | 1012.3 |
| 20260503140107 | 45 | 138 | 2.6 | 6.1 | 0.00 | 0.00 | 0.00 | 51 | 1012.4 |
| 20260503131046 | 42 | 57 | 3.5 | 9.6 | 0.00 | 0.00 | 0.00 | 60 | 1013.0 |
| 20260503130552 | 42 | 56 | 3.5 | 9.6 | 0.00 | 0.00 | 0.00 | 60 | 1012.9 |
| 20260503110550 | 35 | 0 | 0.0 | 1.7 | 0.00 | 0.00 | 0.00 | 78 | 1012.1 |
| 20260503110107 | 34 | 0 | 0.0 | 0.9 | 0.00 | 0.00 | 0.00 | 80 | 1012.1 |